Time,TemperatureF,DewpointF,PressureIn,WindDirection,WindDirectionDegrees,WindSpeedMPH,WindSpeedGustMPH,Humidity,HourlyPrecipIn,Conditions,Clouds,dailyrainin,SoftwareType,DateUTC
2013-02-08 07:00:00,28.8,20.9,30.19,NE,51,1.0,2.0,72,0.00,,,0.00,Wunderground v.1.15,2013-02-08 12:00:00,
2013-02-08 07:02:00,28.8,20.9,30.19,ESE,118,1.0,2.0,72,0.00,,,0.00,Wunderground v.1.15,2013-02-08 12:02:00,
2013-02-08 07:04:00,28.8,20.9,30.19,NNE,27,0.0,2.0,72,0.00,,,0.00,Wunderground v.1.15,2013-02-08 12:04:00,
2013-02-08 07:06:00,28.8,20.9,30.19,ENE,78,0.0,2.0,72,0.00,,,0.00,Wunderground v.1.15,2013-02-08 12:06:00,
2013-02-08 07:12:00,29.0,21.4,30.19,NNE,18,1.0,4.0,73,0.00,,,0.00,Wunderground v.1.15,2013-02-08 12:12:00,
2013-02-08 07:18:00,29.0,21.4,30.18,NE,53,1.0,3.0,73,0.00,,,0.00,Wunderground v.1.15,2013-02-08 12:18:00,
2013-02-08 07:24:00,29.1,21.8,30.18,ENE,58,1.0,3.0,74,0.00,,,0.00,Wunderground v.1.15,2013-02-08 12:24:00,
2013-02-08 07:30:00,29.1,21.8,30.18,NNE,33,1.0,4.0,74,0.00,,,0.00,Wunderground v.1.15,2013-02-08 12:30:00,
2013-02-08 07:36:00,29.1,22.2,30.17,East,87,1.0,4.0,75,0.00,,,0.00,Wunderground v.1.15,2013-02-08 12:36:00,
2013-02-08 07:42:00,29.1,22.2,30.17,SSE,148,1.0,1.0,75,0.00,,,0.00,Wunderground v.1.15,2013-02-08 12:42:00,
2013-02-08 07:48:00,29.1,22.2,30.17,SE,131,0.0,0.0,75,0.00,,,0.00,Wunderground v.1.15,2013-02-08 12:48:00,
2013-02-08 07:54:00,29.1,22.2,30.17,SE,126,0.0,0.0,75,0.00,,,0.00,Wunderground v.1.15,2013-02-08 12:54:00,
2013-02-08 08:00:00,29.1,22.2,30.16,SE,144,0.0,10.0,75,0.00,,,0.00,Wunderground v.1.15,2013-02-08 13:00:00,
2013-02-08 08:06:00,29.1,22.2,30.16,SSE,150,0.0,10.0,75,0.00,,,0.00,Wunderground v.1.15,2013-02-08 13:06:00,
2013-02-08 08:12:00,29.1,22.2,30.16,ENE,75,0.0,10.0,75,0.00,,,0.00,Wunderground v.1.15,2013-02-08 13:12:00,
2013-02-08 08:18:00,29.1,22.2,30.16,ESE,117,0.0,10.0,75,0.00,,,0.00,Wunderground v.1.15,2013-02-08 13:18:00,
2013-02-08 08:24:00,29.1,22.2,30.16,NNW,329,0.0,10.0,75,0.00,,,0.00,Wunderground v.1.15,2013-02-08 13:24:00,
2013-02-08 08:30:00,29.1,22.5,30.16,SE,138,1.0,10.0,76,0.00,,,0.00,Wunderground v.1.15,2013-02-08 13:30:00,
2013-02-08 08:36:00,29.3,23.0,30.15,ENE,59,1.0,10.0,77,0.00,,,0.00,Wunderground v.1.15,2013-02-08 13:36:00,
2013-02-08 08:42:00,29.4,23.1,30.15,East,94,1.0,10.0,77,0.00,,,0.00,Wunderground v.1.15,2013-02-08 13:42:00,
2013-02-08 08:48:00,29.4,23.4,30.15,SE,136,1.0,1.0,78,0.00,,,0.00,Wunderground v.1.15,2013-02-08 13:48:00,
2013-02-08 08:54:00,29.5,23.5,30.14,NE,34,1.0,10.0,78,0.00,,,0.00,Wunderground v.1.15,2013-02-08 13:54:00,
2013-02-08 09:00:00,29.7,23.7,30.14,ESE,103,1.0,10.0,78,0.00,,,0.00,Wunderground v.1.15,2013-02-08 14:00:00,
2013-02-08 09:06:00,29.7,24.0,30.14,ENE,72,1.0,10.0,79,0.00,,,0.00,Wunderground v.1.15,2013-02-08 14:06:00,
2013-02-08 09:12:00,29.8,24.1,30.13,ESE,122,1.0,10.0,79,0.00,,,0.00,Wunderground v.1.15,2013-02-08 14:12:00,
2013-02-08 09:18:00,30.0,24.3,30.13,NE,49,1.0,10.0,79,0.00,,,0.00,Wunderground v.1.15,2013-02-08 14:18:00,
2013-02-08 09:24:00,30.1,24.4,30.13,SE,126,1.0,10.0,79,0.00,,,0.00,Wunderground v.1.15,2013-02-08 14:24:00,
2013-02-08 09:30:00,30.3,24.6,30.12,NE,53,1.0,10.0,79,0.00,,,0.00,Wunderground v.1.15,2013-02-08 14:30:00,
2013-02-08 09:36:00,30.4,24.4,30.12,NNE,18,1.0,10.0,78,0.00,,,0.00,Wunderground v.1.15,2013-02-08 14:36:00,
2013-02-08 09:42:00,30.6,24.2,30.12,SE,130,1.0,10.0,77,0.00,,,0.00,Wunderground v.1.15,2013-02-08 14:42:00,
2013-02-08 09:48:00,30.7,24.3,30.11,NE,44,2.0,10.0,77,0.00,,,0.00,Wunderground v.1.15,2013-02-08 14:48:00,
2013-02-08 09:54:00,30.9,24.2,30.11,ESE,109,2.0,10.0,76,0.00,,,0.00,Wunderground v.1.15,2013-02-08 14:54:00,
2013-02-08 10:00:00,31.0,24.0,30.10,SE,139,1.0,10.0,75,0.00,,,0.00,Wunderground v.1.15,2013-02-08 15:00:00,
2013-02-08 10:05:00,31.0,24.0,30.10,SE,127,1.0,10.0,75,0.00,,,0.00,Wunderground v.1.15,2013-02-08 15:05:00,
2013-02-08 10:12:00,31.2,23.9,30.09,SE,143,1.0,10.0,74,0.00,,,0.00,Wunderground v.1.15,2013-02-08 15:12:00,
2013-02-08 10:18:00,31.2,23.9,30.09,NE,46,1.0,1.0,74,0.00,,,0.00,Wunderground v.1.15,2013-02-08 15:18:00,
2013-02-08 10:23:00,31.3,24.0,30.09,NE,39,1.0,10.0,74,0.00,,,0.00,Wunderground v.1.15,2013-02-08 15:23:00,
2013-02-08 10:30:00,31.5,23.8,30.09,NE,44,1.0,4.0,73,0.00,,,0.00,Wunderground v.1.15,2013-02-08 15:30:00,
2013-02-08 10:36:00,31.5,23.8,30.08,NNE,27,2.0,10.0,73,0.00,,,0.00,Wunderground v.1.15,2013-02-08 15:36:00,
2013-02-08 10:41:00,31.5,23.8,30.08,SE,131,2.0,10.0,73,0.00,,,0.00,Wunderground v.1.15,2013-02-08 15:41:00,
2013-02-08 10:47:00,31.6,23.9,30.08,NE,44,1.0,1.0,73,0.00,,,0.00,Wunderground v.1.15,2013-02-08 15:47:00,
2013-02-08 10:53:00,31.6,24.3,30.07,ESE,119,1.0,10.0,74,0.00,,,0.00,Wunderground v.1.15,2013-02-08 15:53:00,
2013-02-08 11:00:00,31.8,24.5,30.07,North,351,1.0,10.0,74,0.00,,,0.00,Wunderground v.1.15,2013-02-08 16:00:00,
2013-02-08 11:05:00,31.8,24.8,30.06,SSE,156,1.0,10.0,75,0.00,,,0.00,Wunderground v.1.15,2013-02-08 16:05:00,
2013-02-08 11:11:00,31.8,24.8,30.05,NE,38,1.0,10.0,75,0.00,,,0.00,Wunderground v.1.15,2013-02-08 16:11:00,
2013-02-08 11:18:00,31.8,25.1,30.05,NE,38,1.0,1.0,76,0.00,,,0.00,Wunderground v.1.15,2013-02-08 16:18:00,
2013-02-08 11:23:00,31.8,25.4,30.04,NE,40,1.0,10.0,77,0.00,,,0.00,Wunderground v.1.15,2013-02-08 16:23:00,
2013-02-08 11:30:00,31.5,25.4,30.03,NE,38,1.0,10.0,78,0.00,,,0.00,Wunderground v.1.15,2013-02-08 16:30:00,
2013-02-08 11:35:00,31.3,25.5,30.03,North,349,2.0,10.0,79,0.00,,,0.00,Wunderground v.1.15,2013-02-08 16:35:00,
2013-02-08 11:41:00,31.2,25.7,30.02,NNE,17,2.0,10.0,80,0.00,,,0.00,Wunderground v.1.15,2013-02-08 16:41:00,
2013-02-08 11:48:00,31.0,26.1,30.02,NE,50,1.0,10.0,82,0.00,,,0.00,Wunderground v.1.15,2013-02-08 16:48:00,
2013-02-08 11:53:00,30.9,26.1,30.01,NE,49,2.0,10.0,82,0.00,,,0.00,Wunderground v.1.15,2013-02-08 16:53:00,
2013-02-08 11:59:00,30.9,26.3,30.00,NNE,23,2.0,10.0,83,0.00,,,0.00,Wunderground v.1.15,2013-02-08 16:59:00,
2013-02-08 12:05:00,30.7,26.4,30.00,NE,49,1.0,10.0,84,0.00,,,0.00,Wunderground v.1.15,2013-02-08 17:05:00,
2013-02-08 12:12:00,30.7,26.7,29.99,NE,46,1.0,10.0,85,0.00,,,0.00,Wunderground v.1.15,2013-02-08 17:12:00,
2013-02-08 12:17:00,30.7,27.0,29.99,North,351,2.0,10.0,86,0.00,,,0.00,Wunderground v.1.15,2013-02-08 17:17:00,
2013-02-08 12:23:00,30.7,27.0,29.99,NNE,28,2.0,10.0,86,0.00,,,0.00,Wunderground v.1.15,2013-02-08 17:23:00,
2013-02-08 12:30:00,30.7,27.3,29.98,NNE,13,1.0,10.0,87,0.00,,,0.00,Wunderground v.1.15,2013-02-08 17:30:00,
2013-02-08 12:35:00,30.7,27.3,29.98,NE,36,1.0,10.0,87,0.00,,,0.00,Wunderground v.1.15,2013-02-08 17:35:00,
2013-02-08 12:41:00,30.7,27.3,29.97,NNW,342,1.0,10.0,87,0.00,,,0.00,Wunderground v.1.15,2013-02-08 17:41:00,
2013-02-08 12:48:00,30.7,27.3,29.97,NE,34,2.0,2.0,87,0.00,,,0.00,Wunderground v.1.15,2013-02-08 17:48:00,
2013-02-08 12:53:00,30.7,27.3,29.97,NE,38,2.0,10.0,87,0.00,,,0.00,Wunderground v.1.15,2013-02-08 17:53:00,
2013-02-08 12:59:00,30.7,27.6,29.96,NNE,18,2.0,10.0,88,0.00,,,0.00,Wunderground v.1.15,2013-02-08 17:59:00,
2013-02-08 13:05:00,30.6,27.5,29.95,NE,53,2.0,10.0,88,0.00,,,0.00,Wunderground v.1.15,2013-02-08 18:05:00,
2013-02-08 13:11:00,30.6,27.5,29.95,North,351,1.0,10.0,88,0.00,,,0.00,Wunderground v.1.15,2013-02-08 18:11:00,
2013-02-08 13:17:00,30.6,27.5,29.94,North,351,1.0,10.0,88,0.00,,,0.00,Wunderground v.1.15,2013-02-08 18:17:00,
2013-02-08 13:23:00,30.6,27.7,29.93,NE,42,2.0,10.0,89,0.00,,,0.00,Wunderground v.1.15,2013-02-08 18:23:00,
2013-02-08 13:29:00,30.6,27.7,29.93,North,351,1.0,10.0,89,0.00,,,0.00,Wunderground v.1.15,2013-02-08 18:29:00,
2013-02-08 13:35:00,30.6,27.7,29.92,WNW,295,1.0,10.0,89,0.00,,,0.00,Wunderground v.1.15,2013-02-08 18:35:00,
2013-02-08 13:41:00,30.6,27.7,29.92,NNE,13,2.0,10.0,89,0.00,,,0.00,Wunderground v.1.15,2013-02-08 18:41:00,
2013-02-08 13:47:00,30.4,27.5,29.91,NNE,30,3.0,3.0,89,0.00,,,0.00,Wunderground v.1.15,2013-02-08 18:47:00,
2013-02-08 13:53:00,30.4,27.5,29.90,North,351,3.0,10.0,89,0.00,,,0.00,Wunderground v.1.15,2013-02-08 18:53:00,
2013-02-08 13:59:00,30.4,27.5,29.90,NNW,348,2.0,10.0,89,0.00,,,0.00,Wunderground v.1.15,2013-02-08 18:59:00,
2013-02-08 14:05:00,30.4,27.8,29.89,NE,50,2.0,10.0,90,0.00,,,0.00,Wunderground v.1.15,2013-02-08 19:05:00,
2013-02-08 14:11:00,30.6,28.0,29.89,North,350,1.0,10.0,90,0.00,,,0.00,Wunderground v.1.15,2013-02-08 19:11:00,
2013-02-08 14:17:00,30.6,28.0,29.89,North,5,1.0,1.0,90,0.00,,,0.00,Wunderground v.1.15,2013-02-08 19:17:00,
2013-02-08 14:23:00,30.6,28.0,29.88,NE,37,1.0,10.0,90,0.00,,,0.00,Wunderground v.1.15,2013-02-08 19:23:00,
2013-02-08 14:29:00,30.6,28.0,29.88,NNW,347,1.0,3.0,90,0.00,,,0.00,Wunderground v.1.15,2013-02-08 19:29:00,
2013-02-08 14:35:00,30.6,28.0,29.87,NNW,348,2.0,10.0,90,0.00,,,0.00,Wunderground v.1.15,2013-02-08 19:35:00,
2013-02-08 14:41:00,30.6,28.0,29.87,NE,51,1.0,10.0,90,0.00,,,0.00,Wunderground v.1.15,2013-02-08 19:41:00,
2013-02-08 14:47:00,30.6,28.0,29.86,North,351,0.0,10.0,90,0.00,,,0.00,Wunderground v.1.15,2013-02-08 19:47:00,
2013-02-08 14:53:00,30.6,28.0,29.86,NNE,24,1.0,10.0,90,0.00,,,0.00,Wunderground v.1.15,2013-02-08 19:53:00,
2013-02-08 14:59:00,30.6,28.0,29.85,North,351,1.0,10.0,90,0.00,,,0.00,Wunderground v.1.15,2013-02-08 19:59:00,
2013-02-08 15:05:00,30.6,28.0,29.85,NE,37,1.0,10.0,90,0.00,,,0.00,Wunderground v.1.15,2013-02-08 20:05:00,
2013-02-08 15:11:00,30.6,28.0,29.84,ENE,57,1.0,10.0,90,0.00,,,0.00,Wunderground v.1.15,2013-02-08 20:11:00,
2013-02-08 15:17:00,30.6,28.0,29.84,North,9,1.0,10.0,90,0.00,,,0.00,Wunderground v.1.15,2013-02-08 20:17:00,
2013-02-08 15:23:00,30.6,28.0,29.83,ESE,123,2.0,10.0,90,0.00,,,0.00,Wunderground v.1.15,2013-02-08 20:23:00,
2013-02-08 15:29:00,30.6,28.0,29.83,NE,36,1.0,10.0,90,0.00,,,0.00,Wunderground v.1.15,2013-02-08 20:29:00,
2013-02-08 15:35:00,30.6,28.0,29.82,NE,54,2.0,10.0,90,0.00,,,0.00,Wunderground v.1.15,2013-02-08 20:35:00,
2013-02-08 15:41:00,30.6,28.3,29.82,NNW,348,1.0,10.0,91,0.00,,,0.00,Wunderground v.1.15,2013-02-08 20:41:00,
2013-02-08 15:47:00,30.6,28.3,29.82,North,5,1.0,10.0,91,0.00,,,0.00,Wunderground v.1.15,2013-02-08 20:47:00,
2013-02-08 15:53:00,30.4,28.1,29.81,NNW,346,2.0,10.0,91,0.00,,,0.00,Wunderground v.1.15,2013-02-08 20:53:00,
2013-02-08 15:59:00,30.4,28.1,29.81,NW,319,2.0,10.0,91,0.00,,,0.00,Wunderground v.1.15,2013-02-08 20:59:00,
2013-02-08 16:05:00,30.4,28.1,29.81,NE,47,1.0,10.0,91,0.00,,,0.00,Wunderground v.1.15,2013-02-08 21:05:00,
2013-02-08 16:11:00,30.3,28.0,29.81,NNE,28,2.0,10.0,91,0.00,,,0.00,Wunderground v.1.15,2013-02-08 21:11:00,
2013-02-08 16:17:00,30.3,28.0,29.80,North,11,1.0,1.0,91,0.00,,,0.00,Wunderground v.1.15,2013-02-08 21:17:00,
2013-02-08 16:23:00,30.3,28.0,29.80,North,360,1.0,10.0,91,0.00,,,0.00,Wunderground v.1.15,2013-02-08 21:23:00,
2013-02-08 16:29:00,30.3,28.0,29.80,North,351,2.0,10.0,91,0.00,,,0.00,Wunderground v.1.15,2013-02-08 21:29:00,
2013-02-08 16:35:00,30.1,27.8,29.80,NE,49,1.0,10.0,91,0.00,,,0.00,Wunderground v.1.15,2013-02-08 21:35:00,
2013-02-08 16:41:00,30.1,27.8,29.80,North,351,2.0,10.0,91,0.00,,,0.00,Wunderground v.1.15,2013-02-08 21:41:00,
2013-02-08 16:47:00,30.0,27.7,29.79,North,360,3.0,3.0,91,0.00,,,0.00,Wunderground v.1.15,2013-02-08 21:47:00,
2013-02-08 16:53:00,30.0,27.7,29.79,NE,43,3.0,3.0,91,0.00,,,0.00,Wunderground v.1.15,2013-02-08 21:53:00,
2013-02-08 16:59:00,29.8,27.5,29.79,NE,40,2.0,2.0,91,0.00,,,0.00,Wunderground v.1.15,2013-02-08 21:59:00,
2013-02-08 17:05:00,29.8,27.5,29.79,NNE,12,2.0,6.0,91,0.00,,,0.00,Wunderground v.1.15,2013-02-08 22:05:00,
2013-02-08 17:11:00,29.7,27.4,29.78,NE,43,2.0,3.0,91,0.00,,,0.00,Wunderground v.1.15,2013-02-08 22:11:00,
2013-02-08 17:17:00,29.7,27.4,29.78,NE,36,2.0,2.0,91,0.00,,,0.00,Wunderground v.1.15,2013-02-08 22:17:00,
2013-02-08 17:23:00,29.5,27.2,29.78,NNW,347,1.0,5.0,91,0.00,,,0.00,Wunderground v.1.15,2013-02-08 22:23:00,
2013-02-08 17:29:00,29.5,27.2,29.78,NE,37,2.0,8.0,91,0.00,,,0.00,Wunderground v.1.15,2013-02-08 22:29:00,
2013-02-08 17:35:00,29.4,27.1,29.78,NE,55,3.0,8.0,91,0.00,,,0.00,Wunderground v.1.15,2013-02-08 22:35:00,
2013-02-08 17:41:00,29.4,27.1,29.78,NNE,27,2.0,8.0,91,0.00,,,0.00,Wunderground v.1.15,2013-02-08 22:41:00,
2013-02-08 17:47:00,29.4,27.1,29.78,NNE,29,1.0,1.0,91,0.00,,,0.00,Wunderground v.1.15,2013-02-08 22:47:00,
2013-02-08 17:53:00,29.3,27.0,29.78,NNE,23,2.0,8.0,91,0.00,,,0.00,Wunderground v.1.15,2013-02-08 22:53:00,
2013-02-08 17:58:00,29.3,27.0,29.77,NNW,342,3.0,8.0,91,0.00,,,0.00,Wunderground v.1.15,2013-02-08 22:58:00,
2013-02-08 18:04:00,29.1,27.1,29.77,NNW,347,2.0,8.0,92,0.00,,,0.00,Wunderground v.1.15,2013-02-08 23:04:00,
2013-02-08 18:10:00,29.1,27.1,29.78,NNE,28,2.0,8.0,92,0.00,,,0.00,Wunderground v.1.15,2013-02-08 23:10:00,
2013-02-08 18:16:00,29.0,27.0,29.78,ENE,63,3.0,8.0,92,0.00,,,0.00,Wunderground v.1.15,2013-02-08 23:16:00,
2013-02-08 18:22:00,29.0,27.0,29.77,NNW,348,2.0,8.0,92,0.00,,,0.00,Wunderground v.1.15,2013-02-08 23:22:00,
2013-02-08 18:28:00,28.8,26.5,29.77,NNE,32,3.0,3.0,91,0.00,,,0.00,Wunderground v.1.15,2013-02-08 23:28:00,
2013-02-08 18:34:00,28.7,26.4,29.77,North,350,3.0,8.0,91,0.00,,,0.00,Wunderground v.1.15,2013-02-08 23:34:00,
2013-02-08 18:40:00,28.5,26.2,29.77,North,349,3.0,4.0,91,0.00,,,0.00,Wunderground v.1.15,2013-02-08 23:40:00,
2013-02-08 18:46:00,28.4,26.1,29.76,NNW,348,3.0,8.0,91,0.00,,,0.00,Wunderground v.1.15,2013-02-08 23:46:00,
2013-02-08 18:52:00,28.2,25.9,29.76,NE,34,4.0,8.0,91,0.00,,,0.00,Wunderground v.1.15,2013-02-08 23:52:00,
2013-02-08 18:58:00,28.2,25.9,29.75,NNW,343,4.0,8.0,91,0.00,,,0.00,Wunderground v.1.15,2013-02-08 23:58:00,
2013-02-08 19:04:00,28.1,25.8,29.75,NE,49,4.0,8.0,91,0.00,,,0.00,Wunderground v.1.15,2013-02-09 00:04:00,
2013-02-08 19:10:00,27.9,25.6,29.75,North,351,4.0,8.0,91,0.00,,,0.00,Wunderground v.1.15,2013-02-09 00:10:00,
2013-02-08 19:16:00,27.8,25.5,29.75,NNW,329,4.0,8.0,91,0.00,,,0.00,Wunderground v.1.15,2013-02-09 00:16:00,
2013-02-08 19:22:00,27.6,25.3,29.74,NE,37,3.0,8.0,91,0.00,,,0.00,Wunderground v.1.15,2013-02-09 00:22:00,
2013-02-08 19:28:00,27.5,25.2,29.74,NNE,13,3.0,3.0,91,0.00,,,0.00,Wunderground v.1.15,2013-02-09 00:28:00,
2013-02-08 19:34:00,27.3,25.0,29.74,NE,37,3.0,8.0,91,0.00,,,0.00,Wunderground v.1.15,2013-02-09 00:34:00,
2013-02-08 19:40:00,27.2,24.9,29.74,NE,34,4.0,8.0,91,0.00,,,0.00,Wunderground v.1.15,2013-02-09 00:40:00,
2013-02-08 19:46:00,27.0,24.7,29.74,NNE,22,4.0,8.0,91,0.00,,,0.00,Wunderground v.1.15,2013-02-09 00:46:00,
2013-02-08 19:52:00,27.0,24.7,29.74,NNE,16,4.0,8.0,91,0.00,,,0.00,Wunderground v.1.15,2013-02-09 00:52:00,
2013-02-08 19:58:00,26.9,24.6,29.74,NE,42,5.0,5.0,91,0.00,,,0.00,Wunderground v.1.15,2013-02-09 00:58:00,
2013-02-08 20:04:00,26.9,24.6,29.73,NE,44,5.0,8.0,91,0.00,,,0.00,Wunderground v.1.15,2013-02-09 01:04:00,
2013-02-08 20:10:00,26.7,24.7,29.73,NW,313,4.0,8.0,92,0.00,,,0.00,Wunderground v.1.15,2013-02-09 01:10:00,
2013-02-08 20:15:00,26.9,24.9,29.73,North,360,4.0,8.0,92,0.00,,,0.00,Wunderground v.1.15,2013-02-09 01:15:00,
2013-02-08 20:22:00,26.7,24.7,29.73,North,351,4.0,8.0,92,0.00,,,0.00,Wunderground v.1.15,2013-02-09 01:22:00,
2013-02-08 20:28:00,26.7,24.7,29.72,NNW,346,3.0,8.0,92,0.00,,,0.00,Wunderground v.1.15,2013-02-09 01:28:00,
2013-02-08 20:34:00,26.7,24.7,29.72,NNE,14,3.0,8.0,92,0.00,,,0.00,Wunderground v.1.15,2013-02-09 01:34:00,
2013-02-08 20:39:00,26.6,24.6,29.72,NE,50,3.0,8.0,92,0.00,,,0.00,Wunderground v.1.15,2013-02-09 01:39:00,
2013-02-08 20:46:00,26.4,24.4,29.71,NNW,333,3.0,13.0,92,0.00,,,0.00,Wunderground v.1.15,2013-02-09 01:46:00,
2013-02-08 20:52:00,26.1,24.1,29.72,NNW,347,3.0,8.0,92,0.00,,,0.00,Wunderground v.1.15,2013-02-09 01:52:00,
2013-02-08 20:58:00,26.0,24.0,29.72,NNE,32,3.0,8.0,92,0.00,,,0.00,Wunderground v.1.15,2013-02-09 01:58:00,
2013-02-08 21:03:00,26.0,24.0,29.72,NNE,32,3.0,8.0,92,0.00,,,0.00,Wunderground v.1.15,2013-02-09 02:03:00,
2013-02-08 21:09:00,25.8,23.8,29.72,North,5,4.0,8.0,92,0.00,,,0.00,Wunderground v.1.15,2013-02-09 02:09:00,
2013-02-08 21:16:00,25.8,23.8,29.71,NNW,345,4.0,8.0,92,0.00,,,0.00,Wunderground v.1.15,2013-02-09 02:16:00,
2013-02-08 21:21:00,25.7,23.7,29.71,NNW,336,3.0,8.0,92,0.00,,,0.00,Wunderground v.1.15,2013-02-09 02:21:00,
2013-02-08 21:27:00,25.6,23.6,29.71,North,355,3.0,8.0,92,0.00,,,0.00,Wunderground v.1.15,2013-02-09 02:27:00,
2013-02-08 21:33:00,25.4,23.4,29.71,North,360,2.0,8.0,92,0.00,,,0.00,Wunderground v.1.15,2013-02-09 02:33:00,
2013-02-08 21:40:00,25.1,23.1,29.71,NNE,17,2.0,8.0,92,0.00,,,0.00,Wunderground v.1.15,2013-02-09 02:40:00,
2013-02-08 21:45:00,25.0,23.0,29.71,NW,325,3.0,8.0,92,0.00,,,0.00,Wunderground v.1.15,2013-02-09 02:45:00,
2013-02-08 21:51:00,24.8,22.8,29.71,NNW,338,4.0,8.0,92,0.00,,,0.00,Wunderground v.1.15,2013-02-09 02:51:00,
2013-02-08 21:57:00,24.8,22.8,29.71,North,351,5.0,8.0,92,0.00,,,0.00,Wunderground v.1.15,2013-02-09 02:57:00,
2013-02-08 22:03:00,24.7,23.0,29.72,North,350,3.0,8.0,93,0.00,,,0.00,Wunderground v.1.15,2013-02-09 03:03:00,
2013-02-08 22:09:00,24.5,22.8,29.72,NNE,15,4.0,8.0,93,0.00,,,0.00,Wunderground v.1.15,2013-02-09 03:09:00,
2013-02-08 22:15:00,24.5,22.8,29.72,WNW,302,4.0,8.0,93,0.00,,,0.00,Wunderground v.1.15,2013-02-09 03:15:00,
2013-02-08 22:21:00,24.4,22.7,29.73,North,351,4.0,8.0,93,0.00,,,0.00,Wunderground v.1.15,2013-02-09 03:21:00,
2013-02-08 22:27:00,24.4,22.7,29.73,North,360,4.0,8.0,93,0.00,,,0.00,Wunderground v.1.15,2013-02-09 03:27:00,
2013-02-08 22:33:00,24.2,22.5,29.73,WNW,302,5.0,8.0,93,0.00,,,0.00,Wunderground v.1.15,2013-02-09 03:33:00,
2013-02-08 22:39:00,24.2,22.5,29.73,NNW,334,4.0,8.0,93,0.00,,,0.00,Wunderground v.1.15,2013-02-09 03:39:00,
2013-02-08 22:45:00,24.2,22.5,29.73,NNW,342,4.0,8.0,93,0.00,,,0.00,Wunderground v.1.15,2013-02-09 03:45:00,
2013-02-08 22:51:00,24.2,22.5,29.74,NW,325,4.0,8.0,93,0.00,,,0.00,Wunderground v.1.15,2013-02-09 03:51:00,
2013-02-08 22:57:00,24.2,22.5,29.74,NW,313,5.0,5.0,93,0.00,,,0.00,Wunderground v.1.15,2013-02-09 03:57:00,
2013-02-08 23:03:00,24.2,22.5,29.75,NNW,340,5.0,8.0,93,0.00,,,0.00,Wunderground v.1.15,2013-02-09 04:03:00,
2013-02-08 23:09:00,24.4,22.7,29.75,NW,315,4.0,8.0,93,0.00,,,0.00,Wunderground v.1.15,2013-02-09 04:09:00,
2013-02-08 23:15:00,24.4,22.7,29.76,WNW,290,4.0,8.0,93,0.00,,,0.00,Wunderground v.1.15,2013-02-09 04:15:00,
2013-02-08 23:21:00,24.5,22.8,29.76,NW,305,5.0,8.0,93,0.00,,,0.00,Wunderground v.1.15,2013-02-09 04:21:00,
2013-02-08 23:27:00,24.5,22.8,29.76,NNW,330,4.0,4.0,93,0.00,,,0.00,Wunderground v.1.15,2013-02-09 04:27:00,
2013-02-08 23:33:00,24.5,22.8,29.77,NNE,15,3.0,8.0,93,0.00,,,0.00,Wunderground v.1.15,2013-02-09 04:33:00,
2013-02-08 23:39:00,24.7,23.0,29.77,NNE,22,4.0,8.0,93,0.00,,,0.00,Wunderground v.1.15,2013-02-09 04:39:00,
2013-02-08 23:45:00,24.7,23.0,29.77,North,360,5.0,8.0,93,0.00,,,0.00,Wunderground v.1.15,2013-02-09 04:45:00,
2013-02-08 23:51:00,24.7,23.0,29.78,NNW,329,5.0,8.0,93,0.00,,,0.00,Wunderground v.1.15,2013-02-09 04:51:00,
2013-02-08 23:57:00,24.7,23.0,29.77,NNE,21,5.0,5.0,93,0.00,,,0.00,Wunderground v.1.15,2013-02-09 04:57:00,